TimeMST,TemperatureF,Dew PointF,Humidity,Sea Level PressureIn,VisibilityMPH,Wind Direction,Wind SpeedMPH,Gust SpeedMPH,PrecipitationIn,Events,Conditions,WindDirDegrees,DateUTC
12:58 AM,77.0,46.2,34,29.69,10.0,South,4.6,-,N/A,,Clear,180,2013-09-19 07:58:00
1:58 AM,75.7,48.2,38,29.68,10.0,South,6.9,-,N/A,,Partly Cloudy,190,2013-09-19 08:58:00
2:58 AM,74.7,48.6,40,29.68,10.0,Variable,3.5,-,N/A,,Scattered Clouds,0,2013-09-19 09:58:00
3:58 AM,73.0,49.6,44,29.68,10.0,SE,5.8,-,N/A,,Clear,130,2013-09-19 10:58:00
4:58 AM,71.6,49.5,45,29.69,10.0,SE,6.9,-,N/A,,Clear,130,2013-09-19 11:58:00
5:58 AM,71.6,49.5,45,29.71,10.0,SE,8.1,-,N/A,,Clear,140,2013-09-19 12:58:00
6:58 AM,72.5,50.2,45,29.86,10.0,SE,6.9,-,N/A,,Clear,140,2013-09-19 13:58:00
7:58 AM,78.4,51.1,38,29.87,10.0,ESE,4.6,-,N/A,,Clear,120,2013-09-19 14:58:00
8:58 AM,84.0,47.7,28,29.87,10.0,SSE,2.3,-,N/A,,Clear,150,2013-09-19 15:58:00
9:58 AM,86.4,46.2,25,29.87,10.0,Calm,Calm,-,N/A,,Clear,0,2013-09-19 16:58:00
10:58 AM,89.4,46.4,23,29.72,10.0,Variable,2.3,-,N/A,,Clear,0,2013-09-19 17:58:00
11:58 AM,91.6,48.6,23,29.70,10.0,Calm,Calm,-,N/A,,Clear,0,2013-09-19 18:58:00
12:55 PM,93.2,48.2,21,29.82,10.0,Variable,4.6,-,N/A,,Clear,0,2013-09-19 19:55:00
1:58 PM,94.6,46.9,19,29.65,10.0,ESE,4.6,-,N/A,,Clear,120,2013-09-19 20:58:00
2:58 PM,95.9,45.5,18,29.63,10.0,WSW,5.8,-,N/A,,Clear,240,2013-09-19 21:58:00
3:58 PM,96.4,45.5,17,29.62,10.0,SSW,5.8,-,N/A,,Clear,200,2013-09-19 22:58:00
4:58 PM,95.9,45.1,17,29.62,10.0,West,8.1,-,N/A,,Clear,280,2013-09-19 23:58:00
5:58 PM,94.6,45.5,18,29.62,10.0,NNW,12.7,-,N/A,,Clear,330,2013-09-20 00:58:00
6:58 PM,91.2,42.8,19,29.65,10.0,NNW,12.7,-,N/A,,Clear,330,2013-09-20 01:58:00
7:58 PM,89.1,39.6,18,29.66,10.0,NW,11.5,-,N/A,,Clear,320,2013-09-20 02:58:00
8:58 PM,86.5,40.1,19,29.68,10.0,NW,8.1,-,N/A,,Clear,310,2013-09-20 03:58:00
9:58 PM,84.2,39.6,21,29.69,10.0,WNW,6.9,-,N/A,,Clear,290,2013-09-20 04:58:00
10:58 PM,81.9,38.8,22,29.70,10.0,Variable,3.5,-,N/A,,Clear,0,2013-09-20 05:58:00
11:58 PM,76.8,39.9,27,29.71,10.0,South,6.9,-,N/A,,Clear,170,2013-09-20 06:58:00